GFSGL_700_spd_000.txt.gz
Wind_Speed
32 30 24 18 19 21 20 19 19 18 16 18 21 20 18 19 20 21 22 23 25 27 27 32 35 38 39 41 44 46 44 43 46 45 43 39 44 44 38 40 38 35 36
32 32 22 20 20 22 21 19 18 17 17 21 19 18 18 20 22 22 23 23 25 28 29 32 37 37 38 40 41 43 46 46 43 44 41 39 40 44 40 40 38 37 34
31 33 23 23 23 22 20 19 18 17 18 20 20 20 21 21 23 24 25 24 26 31 34 41 38 35 38 36 39 39 40 43 46 46 41 40 41 40 44 44 41 40 37
29 31 24 23 20 18 18 17 18 19 19 19 19 20 21 20 22 23 26 27 31 32 36 47 38 31 32 31 34 38 40 41 43 47 44 42 39 39 43 45 45 44 40
29 30 22 21 19 17 18 19 19 21 22 22 20 21 21 20 22 26 27 28 32 32 39 47 29 21 30 31 32 31 36 41 44 45 44 45 41 40 42 41 44 44 43
28 26 22 20 19 21 20 20 20 21 21 22 22 22 19 19 22 27 29 28 33 35 35 41 28 21 23 30 32 32 34 38 42 44 43 48 45 41 37 40 41 44 47
27 23 19 19 17 18 19 21 20 20 18 18 20 21 21 22 23 27 29 30 30 30 32 36 38 30 15 30 34 37 35 40 42 42 43 46 46 44 39 38 40 44 48
25 19 19 18 17 21 22 21 22 20 20 20 21 21 21 22 21 26 28 25 23 27 30 31 42 39 22 25 31 40 41 38 42 43 42 41 44 43 42 40 38 39 44
21 20 21 22 24 25 24 22 22 22 20 21 21 19 19 21 25 25 23 24 21 27 33 29 34 46 24 23 31 35 37 39 39 39 40 39 40 43 42 41 42 42 45
22 24 25 24 26 24 24 23 23 21 22 20 17 18 22 24 24 22 22 22 22 27 31 26 30 37 35 21 28 31 33 37 39 40 39 39 38 41 42 43 41 42 41
26 28 29 32 26 27 26 25 24 23 22 21 20 20 22 20 20 23 22 22 22 26 28 31 26 30 34 29 33 15 24 31 38 40 40 40 42 42 45 44 43 42 42
29 29 32 36 31 22 30 27 25 24 26 28 21 15 14 22 23 26 25 24 23 24 26 29 29 28 41 25 30 32 10 13 19 32 36 35 37 38 42 43 42 40 37
32 31 33 33 32 27 30 30 25 27 26 26 16 15 17 15 19 28 26 25 23 22 21 23 29 29 29 35 25 36 10 5 16 17 25 25 26 32 36 38 40 37 36
31 33 35 34 32 33 31 29 26 28 26 19 19 17 21 21 19 25 26 22 20 21 17 19 22 23 27 32 29 31 34 22 5 10 17 27 27 26 31 37 38 37 35
30 31 36 33 35 33 33 29 31 29 20 19 22 23 22 23 23 25 23 18 14 15 15 16 20 19 20 24 27 29 26 30 27 13 9 21 25 22 25 30 34 35 36
27 29 33 33 33 28 27 29 32 25 18 18 20 22 25 24 20 18 18 12 13 13 13 13 15 16 14 18 16 23 28 23 22 22 10 14 14 27 27 25 25 30 33
29 30 29 27 23 26 27 29 31 20 18 21 23 21 21 19 16 14 13 12 13 12 12 14 16 15 12 12 15 17 23 24 27 21 19 22 13 15 17 25 31 38 38
24 24 21 22 21 23 25 28 28 16 11 18 17 20 19 18 15 14 14 14 15 16 17 16 14 11 8 7 8 12 14 17 19 24 25 22 18 19 19 10 5 13 17
24 23 23 23 23 23 22 19 21 19 16 17 17 17 18 15 14 13 14 14 15 14 15 13 11 7 5 5 7 8 9 13 12 9 14 19 12 11 11 16 17 12 3
21 21 20 20 21 21 17 17 14 19 12 12 17 17 17 18 15 14 14 14 13 13 12 11 9 7 5 5 5 5 7 7 6 7 7 9 8 9 8 8 6 7 9
22 23 19 17 15 16 16 18 28 18 15 17 17 19 17 16 16 15 15 14 14 13 12 10 9 9 8 7 6 7 7 8 8 8 8 8 4 4 2 2 2 3 4
25 19 18 19 18 16 17 17 14 13 14 17 17 18 18 17 16 14 14 14 13 13 11 9 9 11 13 14 12 12 13 12 11 11 12 12 10 9 10 9 4 4 4
22 18 17 18 20 20 19 19 17 17 17 17 17 16 16 12 10 10 10 10 11 11 11 10 10 10 11 12 12 15 17 19 18 18 19 17 17 16 15 12 13 14 15
17 18 21 23 21 20 19 19 18 17 17 16 15 13 9 8 9 9 10 10 9 10 10 10 10 10 10 11 12 14 15 15 14 15 15 16 15 14 15 17 18 16 16
21 24 26 24 22 22 21 19 16 14 13 11 9 7 7 7 7 7 7 7 8 8 8 8 8 9 8 8 8 8 9 9 9 10 11 12 12 12 14 15 17 19 21
22 20 20 21 22 21 19 17 15 13 11 10 9 8 7 6 6 6 6 6 6 7 7 8 9 9 9 9 8 7 7 6 6 7 7 7 8 9 10 11 11 12 13

GFSGL_700_spd_003.txt.gz
Wind_Speed
21 26 31 36 26 23 23 23 21 20 19 19 20 21 20 20 21 23 21 25 25 25 26 28 30 29 31 36 39 41 44 45 49 43 40 38 37 36 41 39 46 39 37
24 27 30 37 27 25 22 21 20 19 19 20 21 23 23 23 23 21 21 24 27 28 30 34 34 39 42 41 39 40 42 43 44 45 40 37 40 45 44 49 33 37 38
26 29 31 35 31 25 22 21 19 19 19 21 24 24 24 24 23 24 23 24 28 31 32 33 34 36 44 40 29 36 39 40 41 41 41 40 40 38 45 43 44 43 39
26 29 31 33 31 26 24 22 22 21 21 22 23 24 24 25 25 23 22 27 29 31 34 34 34 35 48 37 27 32 37 38 39 40 41 40 42 41 42 43 34 40 41
28 28 30 33 30 24 22 22 23 23 23 23 23 22 22 23 21 24 27 33 33 32 34 30 31 37 46 35 28 25 36 37 39 38 42 41 41 44 44 40 42 39 39
28 29 29 28 24 21 19 19 21 22 23 23 21 21 22 22 22 26 28 30 30 29 29 28 31 38 39 49 38 25 34 39 39 38 37 44 41 41 43 43 41 42 38
28 28 28 22 21 19 19 22 24 23 24 21 22 23 25 25 24 25 24 27 28 25 25 29 34 36 37 40 47 32 27 37 43 42 43 42 40 41 43 45 46 38 36
27 29 24 22 23 25 26 27 23 25 24 23 25 25 26 23 23 22 25 25 24 22 23 30 35 37 37 43 52 32 30 33 45 45 43 39 44 40 44 45 45 39 35
28 25 25 23 26 29 29 30 28 27 24 25 28 21 24 22 25 24 23 25 25 23 26 28 32 35 37 34 51 32 31 30 40 47 45 38 42 38 41 42 44 43 41
24 25 26 26 28 30 32 30 24 30 27 28 24 28 26 28 28 23 22 25 26 24 26 29 29 34 32 41 40 31 41 32 30 45 43 40 39 41 42 42 42 42 42
24 28 32 33 32 30 32 37 23 27 30 30 30 31 31 26 32 15 20 26 28 30 30 30 26 31 27 39 30 32 37 32 18 25 36 38 36 39 42 43 43 41 42
29 32 35 38 35 30 34 38 31 35 34 34 30 31 27 19 20 28 20 25 30 31 28 29 24 26 27 36 40 31 31 33 16 12 23 32 34 36 38 39 40 40 41
33 38 36 35 34 34 33 34 35 35 35 22 25 37 18 18 14 28 25 28 30 29 26 26 25 25 23 22 30 40 28 36 28 5 16 29 36 35 34 37 38 38 39
36 34 32 32 33 38 37 34 30 31 20 26 35 28 31 9 23 27 30 30 28 23 20 23 21 20 20 23 21 27 34 25 29 22 8 22 33 35 34 33 36 38 40
31 29 28 29 32 34 37 33 29 28 28 29 33 25 23 21 23 27 26 21 18 14 16 18 17 17 15 20 16 25 31 29 25 29 27 17 18 32 31 27 30 31 34
29 27 25 25 27 29 34 40 31 30 29 31 22 21 20 19 21 20 19 15 12 11 12 15 18 19 15 13 13 18 24 27 33 28 26 23 23 12 21 23 28 33 33
26 27 28 33 24 20 29 29 31 27 30 30 28 21 15 16 19 20 18 15 13 12 15 16 18 19 13 11 10 14 18 18 22 29 30 30 27 13 20 15 17 37 31
27 28 25 23 27 25 25 26 26 28 31 25 16 15 17 18 18 17 17 18 17 17 16 15 14 15 12 11 11 12 14 20 17 17 23 27 21 28 26 24 11 16 18
24 18 22 24 25 25 26 27 29 21 16 21 22 18 18 16 16 16 16 16 17 15 14 14 12 11 11 10 10 11 11 11 12 14 16 18 21 17 20 22 23 23 20
24 23 24 25 25 27 26 24 22 21 25 21 18 19 18 19 16 16 16 16 15 14 13 12 12 11 11 10 10 9 8 8 9 9 11 13 13 14 16 13 12 15 17
24 21 23 27 27 22 21 25 26 20 18 16 13 13 21 21 20 19 19 19 19 18 15 14 13 13 11 11 11 10 11 10 9 11 11 11 11 8 10 14 8 8 9
24 27 26 22 21 21 19 21 19 18 19 19 20 21 23 23 20 20 19 19 18 17 15 13 13 13 13 14 17 17 16 14 16 14 13 14 12 10 8 8 4 3 4
27 16 22 24 19 19 23 20 19 18 20 19 19 19 21 20 18 18 16 15 15 15 15 14 14 14 14 13 14 15 15 16 17 16 15 13 13 13 13 12 10 8 10
22 21 22 21 23 22 23 21 21 19 20 19 18 17 17 16 13 13 13 13 12 12 12 12 12 12 11 10 10 11 13 14 15 14 13 12 11 11 11 11 12 12 13
22 22 24 25 28 27 20 18 19 17 17 17 16 13 12 12 12 11 9 9 9 8 8 8 8 9 9 8 8 8 7 7 8 8 9 9 8 7 7 9 10 11 13
20 24 24 21 23 20 18 17 15 14 15 14 14 13 12 11 10 9 9 8 7 7 7 8 9 9 9 10 10 10 9 8 8 7 8 8 9 9 9 9 8 8 9

GFSGL_700_spd_006.txt.gz
Wind_Speed
24 21 21 28 32 34 37 30 27 26 24 21 21 23 24 24 23 24 23 22 23 25 25 27 28 29 30 28 33 37 44 41 48 47 44 41 40 34 39 44 45 36 37
26 23 22 25 30 35 39 34 29 26 24 25 25 25 26 26 25 26 24 24 24 26 26 29 31 32 33 31 35 39 46 34 36 46 43 42 42 39 38 41 46 48 47
28 25 25 26 31 34 39 34 29 26 26 26 26 26 27 26 25 26 26 25 25 27 28 31 32 34 33 32 36 41 45 37 32 42 40 40 40 38 41 39 46 45 43
27 26 27 28 30 34 39 32 28 26 25 23 22 24 25 26 26 27 26 24 27 30 31 30 31 31 33 34 38 41 41 39 38 35 42 40 39 37 39 44 44 41 44
25 26 28 29 31 35 35 28 26 23 24 25 28 29 27 26 25 26 26 29 31 30 29 30 29 28 30 36 41 40 41 44 44 31 40 41 39 37 39 42 43 38 38
28 23 30 29 33 36 29 28 27 28 25 26 30 31 29 28 28 28 27 27 28 29 28 27 27 26 32 36 39 40 42 45 37 35 38 42 41 36 41 40 43 44 41
26 24 27 29 33 30 27 26 27 29 28 29 32 30 30 30 29 27 24 24 26 25 27 27 24 27 32 37 39 37 43 34 33 39 39 41 43 42 41 39 40 44 44
22 23 27 31 32 29 28 29 27 30 38 35 36 31 30 28 30 26 25 28 23 23 26 27 26 30 32 34 39 34 49 30 36 41 43 45 47 41 41 39 39 41 40
20 22 29 30 28 29 31 31 32 31 32 35 30 28 28 29 30 31 31 31 25 20 23 26 29 31 32 32 34 47 44 32 40 37 36 45 45 44 46 41 42 43 43
17 25 28 28 28 30 33 33 28 30 35 35 35 29 29 29 35 32 34 37 21 21 25 30 31 29 27 29 34 46 42 48 42 45 20 34 37 41 42 40 41 46 44
21 27 28 29 32 34 34 33 26 36 34 34 35 34 30 30 24 29 21 18 20 26 30 33 34 29 24 29 28 38 35 46 38 38 17 17 32 34 38 39 40 39 43
24 26 28 33 35 30 29 40 33 34 35 39 30 34 24 29 35 28 28 20 24 32 34 33 31 27 21 24 27 32 42 44 38 33 20 10 21 34 33 36 37 42 37
24 29 30 32 35 37 34 37 34 36 32 34 34 31 26 38 37 25 19 23 26 33 32 29 25 20 20 21 24 22 37 39 37 30 37 4 14 24 26 29 32 36 35
26 33 36 36 30 32 33 36 33 30 34 29 33 32 36 38 27 17 23 26 29 28 26 23 24 20 21 22 22 21 29 32 43 45 33 31 10 22 23 28 28 31 33
30 29 29 24 25 29 31 28 22 29 36 36 30 31 31 28 23 22 22 24 23 22 19 20 18 18 20 21 18 17 24 32 30 39 40 32 29 15 25 27 25 29 31
33 34 23 19 15 21 37 41 38 33 29 28 29 30 32 29 23 23 24 23 21 20 20 22 23 22 22 18 14 15 21 25 21 29 37 35 30 32 15 25 30 32 28
24 23 20 23 25 28 32 35 33 28 27 29 31 33 31 30 20 18 22 22 20 21 23 23 24 23 20 17 15 14 17 20 23 23 28 34 38 35 28 24 10 21 26
29 29 26 25 23 28 29 23 28 29 30 29 27 25 24 16 16 19 21 21 21 19 19 20 20 21 18 15 14 14 13 14 16 17 21 22 26 32 31 28 27 20 20
31 28 26 28 23 25 27 26 27 29 32 30 26 26 20 20 19 18 18 20 20 20 20 19 18 18 16 14 13 13 14 11 12 14 14 18 17 18 24 24 25 25 25
33 26 22 25 29 25 23 27 29 25 25 24 24 22 20 16 21 15 18 20 20 20 21 21 19 19 18 15 12 12 12 10 10 11 12 15 15 14 18 21 16 16 19
29 26 18 22 24 26 25 22 21 23 24 23 18 19 20 19 18 20 20 20 21 21 20 20 19 19 18 17 15 13 15 14 14 15 13 15 15 13 11 12 13 12 16
15 18 23 25 16 19 20 20 20 21 20 21 20 18 20 21 22 21 20 18 18 18 17 16 18 17 17 16 17 18 18 19 18 17 18 17 15 14 11 8 7 6 7
22 24 23 19 20 23 18 20 23 23 21 23 23 21 19 17 17 19 17 17 16 14 16 16 15 16 17 17 16 16 16 15 15 16 15 15 13 12 10 8 8 8 7
24 22 21 20 22 24 23 21 25 24 20 22 23 19 19 19 14 13 14 14 14 14 14 13 12 11 11 11 11 11 12 13 12 12 11 11 10 10 10 9 7 7 9
19 17 19 19 17 22 20 15 16 21 20 19 19 18 17 15 15 13 12 12 12 11 11 10 9 9 9 9 10 9 9 9 9 10 9 9 9 8 8 8 8 7 7
18 20 20 20 19 22 20 19 18 19 18 19 19 17 16 15 14 13 11 11 11 9 8 9 9 9 9 10 10 11 10 10 10 10 10 10 10 10 9 9 8 7 6

GFSGL_700_spd_009.txt.gz
Wind_Speed
28 26 22 19 18 21 26 29 33 29 24 21 21 21 20 20 21 23 22 21 22 22 24 25 26 26 28 28 28 30 31 33 40 42 45 45 36 40 39 39 37 32 31
27 31 26 22 20 22 26 30 34 31 26 22 22 20 20 20 22 23 23 23 24 24 23 26 28 30 31 29 29 29 31 34 39 41 39 40 35 34 39 41 41 38 36
28 31 29 22 21 23 27 31 32 29 27 24 23 22 22 23 24 23 25 23 22 22 23 28 30 31 28 30 31 31 33 37 40 42 43 40 35 34 36 40 41 43 41
25 29 30 22 19 22 27 30 28 27 24 23 24 22 24 25 25 24 24 25 24 24 26 27 27 31 30 29 29 32 36 41 42 45 45 46 41 37 39 40 42 41 42
28 31 28 20 19 22 25 29 27 25 23 24 24 24 28 29 27 25 29 28 28 26 25 26 26 28 29 29 29 34 39 41 42 47 51 50 44 33 38 40 40 40 43
36 30 24 21 18 20 25 27 23 23 24 25 28 26 29 25 25 23 23 23 22 22 25 25 24 25 27 26 31 35 37 39 43 47 45 40 41 37 32 41 43 41 42
36 31 25 20 19 21 26 25 23 23 25 22 27 23 30 25 25 26 24 25 25 24 28 27 28 25 25 29 32 34 33 36 41 50 50 46 50 44 34 39 44 44 42
33 31 24 20 19 22 23 23 24 25 25 23 28 28 27 26 30 23 24 29 29 30 26 25 26 27 28 29 32 31 32 33 42 46 45 45 49 48 37 40 43 43 45
34 27 18 17 17 21 24 23 26 28 25 24 26 28 30 29 27 24 26 31 27 22 17 17 25 28 30 30 31 31 34 35 43 47 41 40 47 39 31 40 48 43 43
28 17 15 15 19 22 24 28 33 31 25 27 26 31 31 27 33 21 28 34 29 17 17 22 27 28 29 28 28 30 33 39 45 45 45 35 38 29 27 36 47 49 43
17 15 16 17 19 23 28 34 36 31 28 26 28 30 32 30 31 28 27 36 24 24 22 24 29 26 27 25 26 27 32 31 46 45 43 32 24 16 19 29 40 39 38
15 16 15 18 22 29 34 36 29 33 34 34 29 29 25 31 31 30 33 30 25 23 24 26 27 26 21 24 25 26 28 32 40 46 41 40 22 11 14 25 33 33 33
20 17 17 18 27 35 36 31 28 35 40 25 23 28 31 32 27 29 30 19 19 25 26 27 24 23 21 22 25 26 25 27 39 40 49 39 33 9 4 17 26 31 30
16 24 18 18 30 29 33 33 33 34 36 26 30 29 30 29 30 29 27 23 22 24 26 27 25 23 19 25 27 24 22 25 32 34 41 40 45 19 6 12 21 27 31
17 31 28 25 24 27 29 32 32 26 23 29 26 27 27 28 31 30 26 26 24 25 25 25 23 22 22 24 25 20 19 20 26 25 33 46 42 44 8 11 20 22 24
9 19 15 18 19 24 29 28 28 29 28 26 24 24 25 27 27 26 24 20 21 23 22 21 21 22 23 23 21 17 17 17 19 23 29 32 42 38 38 24 13 22 25
17 12 13 16 19 23 26 25 25 23 23 23 25 26 28 26 28 23 15 19 21 20 19 20 21 21 21 21 19 16 15 16 17 20 19 31 31 38 40 37 34 13 21
13 14 12 15 19 21 23 21 23 23 24 24 26 29 27 25 23 19 17 18 19 19 19 19 18 19 19 19 17 16 14 16 15 17 15 23 26 30 32 33 34 27 31
16 19 23 21 19 22 21 21 24 25 26 27 27 25 21 23 18 18 20 15 18 19 21 20 19 18 19 20 19 14 12 12 13 15 21 20 19 19 23 27 22 30 28
20 21 26 23 22 21 17 18 21 23 25 26 22 19 20 20 16 14 18 16 20 22 22 22 20 18 17 17 17 14 15 12 12 14 17 19 18 17 16 17 18 20 23
24 26 25 24 20 22 25 22 16 17 21 20 19 18 19 20 20 18 15 18 21 21 20 18 17 16 13 15 17 15 15 16 16 17 17 16 18 14 11 10 12 13 16
24 23 25 23 22 24 18 20 19 19 19 19 17 15 15 18 19 18 18 17 18 18 15 16 15 14 13 14 15 16 14 15 16 14 14 14 15 13 11 8 7 6 10
24 21 19 22 23 20 18 18 21 25 25 22 21 20 18 16 16 17 16 15 13 12 11 12 12 12 12 11 11 12 12 10 10 12 11 10 10 9 10 8 6 6 6
22 20 21 22 20 17 20 20 22 23 23 24 25 23 20 20 13 12 13 11 10 10 8 8 9 8 9 9 8 9 9 9 8 9 10 9 9 9 9 9 8 7 5
22 21 22 20 19 20 22 18 16 18 22 19 20 22 22 19 17 13 10 10 9 8 7 4 6 7 6 8 8 8 8 8 8 8 8 10 9 9 9 7 7 8 8
20 13 16 21 24 24 25 23 19 20 22 22 20 20 18 17 16 13 12 10 8 8 4 5 3 7 8 9 9 9 9 9 9 9 9 8 9 9 8 8 7 6 6

GFSGL_700_spd_012.txt.gz
Wind_Speed
30 23 20 25 25 22 19 19 21 26 26 23 22 19 16 16 17 17 18 18 19 19 21 21 22 23 24 27 31 30 30 32 33 31 32 33 34 35 36 35 33 43 43
31 24 25 24 27 25 21 19 20 23 25 22 19 17 15 16 18 19 20 20 18 18 20 21 22 24 26 27 28 30 31 32 33 34 36 38 37 36 37 37 30 39 43
37 26 26 24 28 27 23 19 21 23 23 19 16 16 15 16 18 20 20 19 20 22 20 21 24 25 26 26 27 28 29 31 32 39 42 41 42 41 39 42 38 33 43
35 29 26 23 24 26 23 19 20 21 21 18 16 18 16 19 21 21 20 21 22 22 20 21 22 24 25 27 28 27 28 30 35 39 43 43 45 47 47 42 39 35 40
31 31 27 23 22 26 21 17 19 21 20 17 18 20 15 22 20 20 22 22 22 20 21 21 21 24 26 28 28 28 29 33 37 39 40 41 48 49 46 41 36 36 38
31 32 31 27 23 26 18 15 19 18 16 17 20 21 20 21 21 20 24 23 23 26 27 25 25 24 25 26 27 29 32 34 36 37 41 44 52 55 46 40 35 35 40
33 33 34 31 24 24 17 15 16 13 16 21 21 24 23 23 24 23 23 23 22 24 24 30 30 26 26 25 29 33 33 33 33 38 41 45 55 53 51 47 41 38 42
34 32 32 29 22 18 15 16 13 16 18 19 23 23 23 25 25 26 25 27 24 27 34 30 22 21 25 27 32 32 31 30 30 35 40 42 55 54 45 48 50 43 40
33 32 30 24 22 15 14 16 16 19 21 22 24 25 23 25 27 28 29 26 26 27 34 25 23 23 24 30 31 30 29 25 30 33 35 46 57 41 42 49 47 39 38
29 27 22 20 19 13 12 18 18 22 23 22 26 26 24 30 26 25 33 26 25 33 27 25 27 27 30 32 29 27 26 28 31 34 37 48 46 38 40 41 39 30 32
24 22 16 16 15 12 18 18 20 22 23 26 28 23 35 22 22 25 32 26 30 33 22 17 23 28 30 27 25 24 28 32 32 33 40 45 46 37 30 25 21 27 32
23 19 19 17 19 22 16 19 25 23 31 31 27 32 29 25 25 29 28 28 29 26 21 22 26 25 23 22 21 23 28 30 28 31 39 42 45 47 20 13 17 19 28
27 28 30 26 31 31 18 20 29 30 32 28 30 30 31 29 28 27 26 28 29 29 26 22 25 24 20 20 22 26 28 26 25 29 37 39 48 47 20 5 8 16 22
24 32 24 35 26 40 16 24 26 31 31 31 33 26 33 28 26 26 28 30 31 29 27 24 24 21 19 21 23 24 24 23 23 26 30 37 46 42 42 8 3 14 24
31 30 29 5 16 28 34 39 29 30 30 27 26 32 32 28 25 27 28 29 27 26 20 20 21 21 20 20 22 22 21 20 20 21 25 31 38 43 44 36 8 9 23
34 29 19 4 17 24 24 27 27 27 24 26 28 28 28 26 26 30 29 29 26 19 17 19 19 20 19 19 19 19 17 17 16 18 22 26 32 40 41 37 30 10 16
23 14 4 12 14 15 17 21 24 25 26 25 26 27 25 25 28 28 26 23 20 16 17 18 17 18 18 18 17 18 16 15 16 14 16 27 26 30 35 41 34 27 8
11 12 13 13 15 15 17 17 22 26 25 25 26 24 24 23 24 25 21 21 18 16 15 17 17 19 19 19 18 17 15 14 14 16 18 22 24 24 26 29 32 34 26
11 11 15 18 15 16 16 17 22 25 25 24 22 25 22 21 20 20 21 19 16 17 15 18 19 19 19 18 18 16 16 14 12 15 17 21 20 20 16 19 22 24 28
24 10 16 15 14 15 16 16 18 22 23 23 22 21 22 20 19 19 18 20 16 17 17 20 21 19 17 16 16 15 14 15 16 16 16 16 15 16 15 10 15 18 19
18 20 20 16 15 13 14 17 24 21 17 17 20 20 18 17 17 16 17 17 17 18 18 19 19 18 16 14 15 14 14 13 14 14 14 14 14 12 11 10 8 11 15
25 18 18 16 15 16 18 23 21 20 18 19 18 18 15 14 17 18 17 17 15 14 15 14 14 14 12 10 10 10 9 9 10 11 11 12 11 11 10 9 8 7 8
19 20 20 18 18 21 21 21 18 24 20 21 17 18 19 17 14 16 15 13 10 11 11 10 10 8 7 6 6 7 7 7 8 9 9 10 10 11 10 10 9 9 7
20 18 18 22 24 22 21 19 20 19 20 22 20 21 21 21 17 12 13 11 8 8 9 7 5 5 5 5 5 5 6 7 7 8 8 8 9 9 10 10 9 10 9
19 21 22 24 24 22 20 20 19 17 19 21 22 23 23 21 18 12 10 10 7 6 6 6 4 3 4 5 5 4 4 5 6 7 8 8 8 8 7 8 8 8 9
22 22 23 25 19 20 21 23 23 23 20 22 25 22 19 17 16 14 9 9 8 5 6 5 5 5 6 6 7 7 6 5 7 7 7 8 8 8 7 7 7 6 6

GFSGL_700_spd_015.txt.gz
Wind_Speed
29 31 31 25 19 24 25 20 19 20 20 21 24 24 23 20 18 17 17 18 19 20 21 22 22 25 24 25 28 30 31 31 32 29 29 27 27 30 31 33 36 35 34
35 36 39 31 20 21 27 23 23 21 21 20 23 23 20 18 18 17 18 18 20 20 22 25 25 26 27 28 29 29 30 31 33 32 31 31 30 31 35 36 36 37 38
34 39 42 38 22 20 24 24 24 21 17 19 20 21 19 17 17 18 19 20 20 21 23 24 22 24 24 26 27 27 29 31 33 34 34 35 37 35 38 34 39 42 43
38 36 43 36 27 21 20 24 24 19 18 16 17 18 18 13 17 18 19 18 20 23 24 22 23 26 26 27 28 27 28 30 32 35 36 38 41 39 39 42 47 47 44
34 38 38 35 32 21 16 20 24 17 15 14 13 17 16 14 18 20 19 21 23 23 21 22 24 27 29 31 31 28 29 31 33 36 38 40 41 41 42 47 52 54 43
34 39 45 52 30 25 23 27 23 15 16 24 14 16 19 18 19 21 23 23 21 25 24 23 24 33 32 31 31 29 30 35 38 38 39 39 37 39 44 48 58 55 50
34 40 49 46 38 21 19 28 22 15 10 12 14 18 22 23 24 25 24 24 23 28 26 28 28 35 30 27 23 27 31 36 37 37 39 35 39 40 47 57 61 58 57
35 37 41 58 28 22 16 24 17 18 14 16 16 21 26 25 26 28 33 28 23 28 26 30 35 39 30 26 24 28 33 34 33 35 37 37 38 42 47 60 63 56 60
30 28 27 25 22 23 18 22 16 15 17 19 24 28 26 24 26 21 29 27 26 30 27 29 36 35 28 29 29 33 34 31 31 32 35 35 34 39 47 59 57 53 61
22 24 23 21 23 23 16 20 20 18 24 24 33 29 25 26 29 28 25 30 31 28 28 30 31 26 21 27 32 33 31 28 28 29 30 29 32 41 46 53 48 53 53
25 25 25 25 25 27 24 23 28 27 24 30 29 29 33 31 20 26 26 32 31 28 29 29 27 24 26 29 29 28 28 26 28 29 29 29 34 41 53 51 42 40 32
23 23 22 28 31 33 26 36 32 25 30 23 32 32 31 28 28 26 29 33 28 26 29 29 27 27 26 29 28 25 25 27 27 27 28 30 35 42 52 46 35 19 20
17 18 26 25 29 30 29 28 35 41 18 25 29 30 27 28 26 28 30 28 25 26 27 28 25 26 26 28 27 26 26 25 24 24 26 28 32 41 52 43 22 9 15
19 23 25 23 31 22 23 21 24 33 24 27 28 28 28 26 28 31 27 26 27 29 29 29 26 23 23 24 24 23 24 23 21 22 23 26 28 36 44 48 40 14 6
24 27 24 28 27 38 39 28 24 28 30 26 28 27 26 28 29 27 27 28 29 31 29 27 21 20 24 23 22 22 22 21 20 21 21 21 28 35 37 48 42 16 3
18 22 16 11 17 21 20 22 21 21 24 27 27 26 27 28 28 30 29 30 30 28 25 21 18 20 21 20 19 20 21 21 21 20 17 22 27 29 30 36 41 32 5
20 19 21 16 15 18 20 18 21 24 27 27 28 28 28 29 31 29 30 29 25 24 26 17 18 18 18 20 20 20 21 22 21 19 18 20 23 26 26 27 34 38 31
22 22 17 17 19 18 18 20 25 26 28 29 28 28 28 31 29 30 26 23 22 22 16 15 16 16 17 19 20 20 19 18 18 17 18 19 20 21 19 17 24 28 33
18 17 22 19 15 18 20 21 22 24 25 27 27 26 27 27 28 27 26 21 20 20 16 16 19 20 22 21 20 19 18 17 16 17 17 16 15 15 16 15 17 21 24
15 11 12 18 17 19 20 20 20 19 19 23 25 24 22 21 21 22 22 21 20 20 19 16 20 22 23 21 18 18 16 16 15 15 14 13 13 12 12 11 12 12 19
21 17 21 22 19 18 18 19 18 17 20 19 18 20 22 20 19 21 20 17 17 17 17 19 20 20 19 17 16 15 13 12 10 10 10 11 11 11 11 10 9 11 12
19 22 21 19 20 21 19 17 17 16 20 16 19 19 19 16 15 16 17 16 15 16 17 17 17 16 15 14 12 10 8 7 6 6 7 8 9 11 11 11 10 9 8
26 24 21 19 18 19 17 19 20 18 19 20 19 20 18 14 15 15 16 16 14 14 14 14 13 11 10 8 6 6 5 5 5 5 6 7 8 9 10 10 11 11 10
23 21 19 17 19 19 19 22 23 20 16 18 21 20 19 19 20 17 15 17 14 14 13 11 10 8 6 5 4 4 5 5 6 6 7 6 6 7 8 9 10 11 12
22 20 19 19 20 23 24 24 23 19 16 17 18 17 18 21 20 17 13 14 15 14 11 9 8 7 6 5 4 4 6 6 7 8 8 7 6 6 6 6 7 7 8
23 22 22 19 23 24 23 20 18 20 18 20 18 19 20 21 18 15 12 12 15 14 11 10 8 8 8 7 6 6 6 7 7 8 9 8 7 6 5 5 5 6 6

GFSGL_700_spd_021.txt.gz
Wind_Speed
24 23 25 25 29 33 25 27 23 22 22 20 21 21 21 21 19 18 20 19 18 18 18 18 18 19 19 19 20 21 23 25 27 22 28 25 25 27 26 28 29 31 32
25 29 29 32 38 36 39 33 29 26 24 23 22 22 22 19 16 18 18 18 17 18 20 17 18 21 20 18 19 23 23 27 31 32 25 29 27 24 25 28 30 32 33
27 29 33 35 41 46 43 38 35 32 35 27 25 24 24 20 18 20 21 18 16 20 21 20 19 18 19 19 22 25 26 30 35 36 32 29 30 26 27 29 31 32 33
20 23 32 36 41 45 50 49 49 42 36 32 32 29 28 23 17 22 22 22 18 20 21 20 21 22 22 23 26 28 31 33 36 38 35 32 30 28 32 34 35 34 33
18 22 25 27 38 47 52 54 49 43 25 26 38 38 28 25 18 20 21 22 22 22 22 26 24 23 24 26 28 29 33 35 36 30 30 31 29 33 37 39 39 37 37
19 22 23 24 24 30 38 47 43 42 37 38 32 34 30 29 24 24 24 24 26 26 24 26 25 25 26 29 28 30 32 36 33 29 31 33 33 36 39 39 39 40 44
25 23 22 24 25 26 30 31 33 31 28 27 30 30 35 28 24 25 24 30 29 31 28 30 27 28 29 32 31 31 32 33 30 30 32 33 38 34 37 37 38 43 46
17 11 13 19 23 28 30 28 27 27 23 23 26 30 35 30 27 26 31 32 33 33 32 33 30 29 31 35 34 31 30 30 31 33 36 37 36 33 35 39 41 45 47
13 13 14 17 24 29 24 24 24 23 24 25 28 32 35 32 33 33 40 37 34 33 28 27 30 31 31 35 34 33 31 31 35 34 34 36 35 34 38 41 40 45 49
10 9 13 19 20 22 22 21 20 22 25 27 32 36 35 33 36 43 39 36 37 28 32 27 32 31 33 33 34 34 34 33 32 32 33 33 33 34 35 37 39 44 48
17 24 31 29 23 21 19 16 18 20 23 25 30 33 40 38 37 35 40 38 30 26 24 25 31 32 32 32 34 36 35 33 31 31 31 30 30 33 33 33 35 40 49
27 35 31 28 22 19 13 15 19 21 22 27 31 36 37 36 36 36 32 33 22 22 23 27 31 30 31 33 36 37 34 30 29 29 29 28 30 31 31 34 35 37 41
34 27 27 25 20 20 18 19 20 20 23 27 34 26 28 31 36 27 29 27 28 24 24 28 28 29 31 34 35 33 28 27 28 28 27 28 30 32 33 34 32 36 35
22 26 25 21 16 18 20 17 17 17 21 28 29 27 28 29 30 28 28 25 23 24 25 27 28 30 30 28 26 26 25 25 25 26 27 29 31 31 30 30 32 30 36
27 22 17 17 19 17 16 17 17 18 23 26 27 27 29 28 26 26 26 23 22 23 25 27 28 27 25 26 27 25 24 24 25 28 29 29 29 29 27 28 27 26 34
19 18 18 16 14 12 12 13 15 19 24 25 26 28 26 27 28 26 24 23 24 25 26 26 27 24 23 25 23 22 21 23 27 28 28 28 27 27 27 23 23 22 28
14 15 17 16 15 14 13 15 19 22 24 24 24 25 25 26 26 26 26 27 27 26 26 26 24 23 22 23 21 20 21 24 28 28 27 26 25 25 24 23 20 20 23
15 15 13 14 15 15 14 15 18 20 22 23 24 24 23 23 25 26 27 27 27 25 23 22 23 23 23 23 22 23 25 27 28 27 25 24 22 22 21 19 19 19 20
15 15 13 14 14 18 20 20 21 20 21 23 23 22 23 25 26 27 26 22 21 22 21 21 21 22 22 22 22 22 23 25 25 23 21 20 17 17 17 17 16 17 17
18 15 16 17 16 16 16 16 18 22 24 24 22 22 23 25 26 26 25 24 24 23 22 21 21 22 22 22 21 21 21 21 21 18 15 14 14 14 14 15 14 13 13
19 17 19 18 18 19 21 20 20 22 21 20 20 22 22 23 24 22 22 22 22 22 21 21 21 21 21 20 20 18 17 16 15 13 11 11 12 13 13 13 14 14 13
18 19 22 23 21 22 23 22 24 22 19 20 19 20 22 23 21 19 22 22 22 22 22 20 20 20 18 16 15 14 13 11 10 9 9 10 11 11 12 12 13 14 15
22 23 25 24 24 23 24 23 21 21 20 20 22 23 25 23 22 23 22 21 22 23 23 19 17 16 14 13 12 11 10 8 8 8 9 10 10 10 10 10 11 11 12
22 23 23 23 23 24 23 21 20 18 19 21 23 25 25 22 22 24 23 21 21 21 19 16 14 13 12 11 10 9 8 8 8 9 10 11 10 10 10 9 9 10 9
22 22 23 23 23 22 20 20 19 20 21 24 24 23 22 21 22 22 21 20 20 18 15 14 13 12 11 10 9 8 8 8 8 10 11 12 11 10 9 8 8 7 7
22 23 23 22 22 22 21 21 20 23 20 19 18 15 14 16 17 18 20 20 18 16 14 13 13 11 11 10 9 9 9 9 9 10 11 11 10 8 7 5 5 5 6

GFSGL_700_spd_024.txt.gz
Wind_Speed
25 22 25 28 30 30 28 27 24 27 32 29 23 25 25 21 24 22 21 19 17 19 18 15 15 15 16 18 19 18 19 20 18 20 24 27 32 32 32 32 30 31 31
25 24 26 28 31 33 36 36 33 35 37 37 26 41 36 32 26 23 20 19 17 17 19 17 17 17 17 18 20 20 21 23 25 25 24 29 34 37 34 30 29 30 32
30 29 31 32 33 32 38 43 50 39 38 41 37 41 28 33 28 22 24 23 20 17 18 19 19 18 19 19 21 21 24 27 30 33 32 30 33 35 33 29 29 30 31
25 26 29 30 31 34 38 40 43 45 45 47 46 41 27 30 32 27 27 23 20 21 17 19 21 23 22 21 22 22 24 26 29 32 32 32 29 29 29 31 31 32 35
26 26 24 21 20 30 39 44 41 38 39 45 43 35 38 31 37 32 30 24 24 23 20 20 23 24 26 25 26 26 27 28 30 31 32 32 31 26 31 35 40 41 37
26 23 23 24 24 28 27 28 34 33 35 37 33 31 27 32 35 34 31 26 26 27 27 22 26 29 27 28 28 28 29 31 32 31 32 30 30 30 31 38 40 41 39
29 29 28 26 27 27 25 27 28 28 28 30 29 28 28 31 31 32 33 32 33 30 36 33 29 30 30 28 30 29 32 33 32 34 35 33 35 34 36 38 40 38 39
33 31 29 27 18 15 16 20 25 27 26 24 27 28 27 34 32 30 34 36 33 41 38 40 36 33 29 26 27 31 34 33 35 33 34 35 36 36 36 39 39 38 39
34 31 25 17 11 14 16 24 26 27 27 26 27 29 28 31 31 34 33 37 37 43 40 47 39 34 32 25 29 31 33 32 34 34 34 36 37 36 35 39 38 40 42
31 21 17 12 15 18 29 31 24 26 25 24 25 27 27 31 31 32 36 36 35 37 43 48 45 35 32 25 27 32 34 34 34 34 37 37 34 33 32 34 37 37 35
25 22 18 14 16 26 36 25 25 23 20 21 23 26 28 30 36 33 31 33 35 36 39 40 28 27 26 26 28 32 35 35 36 36 33 31 31 32 33 33 34 37 41
24 21 18 21 27 26 29 25 24 22 20 23 25 25 26 28 32 34 28 37 35 33 33 31 29 26 27 28 30 33 35 36 35 31 29 29 30 29 30 32 33 35 36
23 21 20 22 21 28 28 25 23 22 23 22 21 23 25 28 31 31 32 29 33 33 30 31 28 28 28 30 31 34 34 32 30 28 28 28 30 30 30 32 32 32 33
23 25 26 27 29 30 24 23 23 24 22 21 21 23 27 30 23 25 26 28 27 26 28 28 28 28 29 31 32 31 29 30 28 26 26 28 30 29 30 31 32 32 32
20 23 25 26 24 24 25 25 24 21 20 19 22 23 24 23 24 27 25 22 23 26 27 27 27 28 29 30 28 28 28 27 24 24 24 27 28 29 29 30 31 30 30
34 32 25 24 25 25 25 24 21 20 19 19 21 23 23 24 21 20 21 24 25 25 25 26 27 28 28 27 27 26 26 24 23 24 26 28 28 28 29 28 28 27 27
22 22 22 21 21 22 21 19 18 16 16 17 18 17 17 19 20 22 23 24 23 23 24 26 27 28 26 25 24 25 24 25 25 26 26 26 27 26 25 25 25 24 21
19 18 18 19 19 17 16 15 14 13 12 14 15 16 17 18 19 19 21 21 23 22 20 21 23 23 23 22 23 24 24 24 23 24 25 24 23 22 21 21 22 22 20
17 15 15 17 15 14 13 14 16 17 17 16 17 18 19 19 20 20 20 21 21 22 22 21 20 21 21 20 20 21 21 22 22 22 21 20 18 17 17 18 19 21 20
15 15 15 16 17 17 15 12 13 14 17 19 21 21 18 19 20 21 21 22 21 21 19 18 19 19 19 19 20 19 20 20 19 18 17 15 14 13 14 15 16 18 19
17 17 19 18 18 17 15 15 17 18 19 21 21 20 20 21 21 21 22 21 21 22 21 19 19 19 19 19 18 18 17 16 15 14 12 11 12 12 12 13 14 16 18
19 19 19 20 22 22 21 20 19 19 21 19 19 21 20 18 21 23 21 21 22 21 21 20 20 19 18 17 16 15 14 13 11 10 9 10 11 11 12 12 13 14 14
18 22 22 22 23 24 22 21 20 21 16 16 18 23 21 22 24 25 23 21 19 19 19 20 19 16 14 14 14 13 11 9 8 8 10 11 11 11 11 12 12 13 12
22 23 24 23 21 22 22 22 22 19 20 20 18 22 23 25 23 23 21 20 19 19 19 19 18 14 13 12 12 11 9 8 8 9 10 11 12 11 10 10 11 11 11
18 19 19 18 21 21 23 22 21 20 19 19 21 21 13 17 17 16 18 19 19 19 18 18 16 15 13 13 12 10 9 8 8 9 10 11 11 10 9 9 9 8 9
17 19 19 19 20 21 20 18 18 18 18 20 16 14 13 13 13 14 16 18 19 20 19 17 16 15 14 13 12 11 10 9 9 9 9 9 9 8 8 7 7 7 7

GFSGL_700_spd_027.txt.gz
Wind_Speed
29 27 26 25 24 24 22 22 27 26 26 26 24 29 36 30 33 30 29 27 24 20 20 18 16 16 15 13 15 16 18 16 16 14 20 22 24 28 31 34 35 32 31
29 29 28 29 29 27 29 30 31 34 33 36 32 32 36 40 37 34 26 28 25 23 22 19 15 17 16 15 18 18 16 16 18 21 21 23 27 30 33 34 31 26 28
33 31 30 31 29 26 25 31 34 36 36 38 40 41 40 43 42 36 29 25 27 25 24 18 18 18 15 15 18 18 20 21 21 25 25 26 31 27 30 31 31 30 25
35 34 32 31 28 27 29 29 34 36 36 37 38 39 41 43 43 42 39 33 28 28 24 22 22 25 21 19 20 22 23 21 24 26 28 30 29 25 26 27 28 31 33
34 36 33 30 28 28 27 28 32 35 37 38 40 43 41 36 33 37 39 33 31 30 28 27 26 28 31 25 24 23 24 25 28 29 31 30 28 30 27 30 33 34 34
34 33 31 28 27 24 27 29 30 29 30 29 32 38 38 33 32 33 31 31 33 31 30 31 30 38 40 32 38 32 26 26 28 31 33 30 28 30 30 32 34 37 41
33 31 32 30 28 28 26 25 24 21 21 22 28 32 33 34 32 32 32 31 32 34 34 32 35 37 34 42 38 36 30 26 29 32 32 30 31 31 33 34 36 38 38
32 34 36 34 32 27 24 15 14 15 21 26 30 30 30 33 31 30 30 31 34 36 34 33 31 36 37 44 45 41 37 29 28 32 32 33 34 35 36 37 35 34 34
38 38 37 34 31 27 20 13 12 17 19 20 25 30 29 33 31 30 30 32 34 36 34 33 34 38 39 41 34 29 30 25 28 33 34 34 34 35 35 36 32 34 35
37 34 35 33 28 22 20 20 18 20 19 21 25 28 29 28 28 29 30 30 33 32 33 33 36 35 37 33 32 31 28 27 29 31 35 38 37 35 31 31 31 32 33
36 35 32 29 28 28 21 19 20 23 23 24 28 28 26 25 27 29 30 29 29 29 29 34 40 37 39 31 31 32 32 31 31 32 33 32 30 28 25 26 32 34 39
34 32 31 32 30 26 22 16 18 22 27 29 26 27 26 26 28 29 29 29 31 26 29 34 34 29 29 29 31 32 31 32 32 33 31 28 28 28 28 31 32 34 37
34 33 31 29 27 17 20 22 23 28 28 26 26 29 28 27 29 27 24 24 28 31 31 26 24 25 27 29 31 32 32 31 31 30 30 29 27 28 29 30 31 32 32
32 30 23 19 21 21 21 25 28 27 27 27 30 31 28 28 26 25 26 24 26 20 21 27 26 26 29 32 33 33 33 31 28 27 27 24 24 25 27 29 30 29 29
22 17 15 20 23 25 31 40 35 28 28 29 30 28 26 23 24 25 22 20 19 17 22 26 25 27 30 32 31 29 31 28 27 25 24 24 26 28 29 29 28 26 26
17 17 18 23 27 27 30 27 27 28 28 27 27 27 22 21 22 20 17 15 17 19 21 23 26 26 29 26 29 29 27 30 28 24 24 25 26 27 27 24 24 22 24
20 17 18 21 22 22 24 25 24 23 23 24 22 20 18 16 17 16 16 17 19 21 22 24 26 24 26 26 26 26 28 27 28 25 25 25 26 25 22 21 20 21 22
22 26 22 23 24 21 21 20 20 19 19 17 16 15 15 14 15 16 17 18 19 20 21 21 22 22 24 26 26 26 26 25 25 25 24 23 22 20 18 17 18 19 20
14 13 17 19 18 17 18 18 17 17 15 12 12 12 14 17 18 17 16 16 18 18 19 20 20 21 22 24 23 23 23 23 23 23 22 20 16 15 15 15 16 17 18
14 15 18 16 14 17 17 17 14 13 13 14 15 16 17 16 17 17 16 17 17 19 20 20 21 21 21 22 22 22 21 21 20 18 17 14 12 12 13 14 14 15 16
19 17 15 16 16 15 14 12 10 11 12 14 16 20 13 15 18 18 18 17 18 21 21 19 21 22 22 21 21 20 18 17 16 14 12 12 11 11 13 14 14 15 15
15 14 14 11 13 16 13 9 11 13 14 14 19 22 17 15 12 17 20 20 21 21 18 20 20 21 20 20 19 16 15 14 13 11 10 10 10 11 12 14 14 14 15
16 12 12 19 13 13 14 9 15 16 17 17 23 22 20 18 17 20 21 24 20 17 17 18 18 18 17 16 15 14 13 12 11 10 10 10 11 11 12 13 14 14 14
17 16 13 14 17 18 15 17 17 16 18 18 14 22 22 20 19 21 21 16 18 16 15 15 16 17 16 15 13 13 11 11 10 10 10 11 12 12 12 12 12 12 11
11 14 14 16 20 16 14 15 16 20 21 22 18 19 14 23 25 20 18 15 14 14 14 16 18 17 15 14 13 12 10 9 10 10 11 12 12 11 11 10 9 9 9
11 12 11 16 17 17 15 20 22 21 17 20 20 13 17 15 16 17 18 19 13 14 17 18 16 15 15 14 12 11 10 10 10 11 11 12 12 11 9 8 8 8 8

GFSGL_700_spd_030.txt.gz
Wind_Speed
28 26 25 23 22 22 21 20 19 22 23 24 19 23 25 28 26 27 31 30 31 22 23 22 21 17 15 18 18 16 15 17 17 12 16 17 22 29 29 29 30 30 30
26 28 27 26 25 25 25 20 20 22 27 26 25 28 31 34 34 32 33 34 32 28 24 23 23 24 19 17 20 17 15 14 17 18 17 17 22 24 28 28 28 29 28
28 30 30 30 28 27 24 28 27 27 31 30 30 32 34 36 38 39 38 35 34 33 25 29 25 24 24 23 22 25 21 20 20 20 20 22 24 25 27 27 28 25 24
30 31 33 33 29 24 26 27 32 29 29 28 29 30 33 36 39 41 39 35 33 34 33 28 27 26 24 24 26 25 24 26 27 24 24 25 26 27 31 30 30 30 31
34 33 31 33 31 28 28 27 28 28 27 27 29 30 29 33 35 36 37 33 31 31 31 31 30 27 26 23 29 26 26 31 34 35 32 29 27 28 29 28 31 31 31
30 33 31 31 34 30 28 29 27 26 27 26 22 25 25 30 33 34 35 33 31 31 33 32 31 29 26 23 27 32 35 37 38 37 34 34 28 29 31 30 31 34 36
29 30 34 35 32 31 30 30 30 26 20 20 19 20 24 27 29 30 32 31 30 33 29 30 32 30 27 23 29 32 35 34 31 27 29 31 28 29 32 33 33 36 37
31 31 31 33 33 31 31 32 29 24 21 20 18 17 20 22 24 27 29 33 31 31 29 29 32 29 27 26 30 31 33 31 29 28 23 23 26 26 32 35 36 37 33
35 32 35 33 34 32 32 31 28 26 24 20 15 17 18 21 23 25 28 34 30 32 31 32 29 27 27 29 31 33 34 30 30 28 28 29 30 32 33 37 34 32 31
37 36 40 38 38 33 32 31 28 26 23 15 14 17 19 22 24 26 26 27 29 31 30 31 29 26 26 29 31 34 33 29 29 29 29 31 31 32 32 30 30 30 29
42 42 42 43 38 35 32 32 28 19 15 13 14 20 22 23 23 24 26 26 29 30 30 28 26 22 26 30 28 27 30 31 30 31 31 32 31 32 26 28 28 29 31
45 46 47 43 38 36 32 26 15 17 19 17 19 21 21 22 23 26 26 27 26 30 30 28 25 24 24 25 27 28 30 31 32 31 31 31 29 25 27 25 26 30 34
47 49 47 37 36 35 33 27 25 32 20 20 30 29 32 24 25 26 26 27 28 24 25 28 28 32 24 26 27 28 30 32 33 32 31 29 24 25 23 23 25 28 30
44 39 37 36 33 26 20 15 13 19 21 24 25 25 25 25 27 24 24 24 25 24 21 25 24 21 27 29 28 30 31 33 30 25 23 21 22 23 24 26 29 28 28
34 34 33 29 20 15 15 17 19 18 19 19 18 24 26 25 24 24 23 21 16 17 17 20 19 23 27 26 26 28 27 26 27 26 22 22 22 24 24 25 27 27 25
26 21 16 14 14 16 19 17 14 15 18 19 22 22 22 22 22 20 20 20 16 17 18 21 21 22 24 23 27 29 29 29 30 30 26 23 24 25 25 24 24 22 21
13 15 18 18 18 17 16 18 18 19 18 20 21 20 20 18 16 16 17 17 18 17 17 19 20 21 19 25 28 28 28 26 30 26 24 23 23 23 23 21 20 18 18
16 12 14 21 25 21 20 20 23 26 25 20 18 17 15 15 13 13 16 17 18 18 19 19 19 18 23 25 26 24 25 26 26 25 24 23 22 22 20 18 17 16 16
14 20 16 15 14 12 12 14 18 17 15 15 15 12 10 10 13 15 16 16 16 17 18 18 21 20 20 22 24 23 23 22 22 22 21 21 20 18 16 16 15 15 16
11 10 9 9 8 11 11 13 14 17 18 12 11 8 11 13 14 15 16 16 17 17 18 19 19 21 20 21 22 22 22 22 21 19 17 17 16 14 14 14 15 16 15
9 8 10 15 14 14 15 14 12 16 16 18 13 8 10 12 12 14 14 11 12 16 18 19 19 20 19 19 18 19 19 18 17 16 15 13 12 12 13 14 15 16 16
13 13 16 13 14 15 15 15 14 17 15 18 17 17 15 14 12 15 15 18 19 16 18 19 17 17 18 19 19 18 17 15 14 12 11 10 11 12 13 15 16 16 15
12 16 14 22 23 18 13 20 12 13 18 13 22 22 18 17 14 18 18 19 21 24 20 16 15 16 17 15 16 15 14 14 12 10 9 10 11 12 14 15 16 15 13
16 17 14 17 19 23 16 16 13 12 17 21 21 21 21 18 20 19 18 19 22 21 19 14 13 15 16 16 15 13 11 11 10 9 10 10 11 13 14 14 13 13 11
12 17 23 25 22 13 14 16 15 22 22 21 19 18 16 18 26 17 23 20 13 17 16 13 12 14 12 15 14 10 11 10 9 9 9 10 11 13 12 13 11 11 9
7 8 9 18 20 17 19 25 25 20 19 18 19 23 27 27 21 18 23 12 17 14 15 14 13 11 13 11 12 10 10 9 10 9 9 10 11 11 11 11 9 10 9

GFSGL_700_spd_033.txt.gz
Wind_Speed
21 22 24 24 23 22 20 19 18 19 18 14 13 15 18 21 22 23 25 26 25 26 22 22 18 18 18 20 18 17 17 17 16 10 12 21 23 24 25 25 26 27 24
21 23 26 26 26 25 20 18 19 18 16 14 18 18 21 24 26 27 28 30 27 27 25 22 22 22 20 19 18 17 18 22 19 17 18 19 19 21 21 22 21 24 23
26 24 28 30 28 26 23 20 20 22 22 22 22 23 23 27 30 30 32 32 30 27 25 23 25 23 20 19 17 15 20 15 18 20 24 25 24 27 26 26 25 24 24
25 28 28 30 31 26 25 26 23 20 23 25 27 26 26 28 31 31 33 33 32 30 28 24 25 24 21 23 19 17 18 18 18 24 25 25 27 29 32 32 29 27 26
17 27 28 26 29 31 29 26 27 27 25 25 26 25 26 28 28 31 33 33 31 31 30 26 27 26 25 23 21 20 19 20 23 29 28 30 30 31 32 33 34 32 28
24 25 29 29 28 31 33 30 28 30 29 26 26 26 28 29 26 28 31 31 30 30 31 28 28 27 26 23 22 23 24 22 23 28 29 28 21 27 31 36 35 36 37
27 25 27 29 31 29 30 33 31 29 29 29 29 29 28 25 24 24 26 27 28 29 30 28 29 26 23 24 24 24 24 23 26 28 29 28 25 24 26 28 30 35 36
25 28 28 27 32 33 31 32 35 33 33 33 31 26 23 20 22 23 24 24 26 28 28 28 24 29 25 25 25 26 24 25 27 30 30 27 27 26 27 29 33 36 34
24 31 31 29 32 35 36 35 34 34 33 33 27 26 20 16 20 23 25 25 26 25 25 25 25 29 26 29 29 26 26 26 30 31 28 28 27 28 29 33 33 35 33
25 27 34 33 32 34 37 36 36 33 34 31 26 18 14 15 19 20 23 24 27 24 22 23 24 25 24 29 27 27 27 26 28 29 30 28 29 29 30 31 33 33 30
28 28 35 38 37 37 37 37 37 34 32 24 17 13 21 24 21 22 24 24 25 25 24 22 23 25 25 25 25 26 25 24 29 31 30 29 30 31 32 33 29 26 26
36 33 33 42 42 41 40 41 34 33 28 23 19 26 25 29 23 24 22 22 23 25 24 23 21 20 24 24 25 30 34 28 29 30 31 32 33 30 29 26 25 25 27
40 35 35 40 48 48 46 34 33 30 26 24 23 20 23 23 24 19 21 22 22 23 23 22 19 18 22 25 25 29 30 29 30 32 32 30 27 24 23 21 23 25 28
41 39 38 39 46 47 38 32 29 28 21 15 16 17 24 26 17 19 22 21 22 22 20 19 18 19 23 27 29 29 29 29 28 28 26 20 17 19 20 23 24 24 26
44 43 37 37 38 35 31 30 21 15 13 14 26 32 26 20 18 21 20 18 19 18 18 17 18 21 23 25 27 26 27 24 24 25 24 18 18 20 21 23 24 25 25
33 32 31 29 26 26 23 18 15 13 21 27 20 21 24 20 18 17 15 15 16 16 16 18 20 22 23 24 24 24 23 25 25 23 21 20 22 22 23 23 23 23 22
29 24 26 24 19 15 14 13 20 17 29 22 22 18 23 23 16 14 13 14 16 17 19 22 21 23 23 22 23 23 24 27 25 24 23 21 22 24 25 22 21 20 18
21 21 16 17 16 13 12 15 20 35 20 21 20 14 11 13 11 11 12 14 17 20 21 21 19 20 20 21 21 20 21 22 24 25 25 24 24 25 21 20 18 17 17
23 21 20 15 15 21 28 25 24 19 14 14 11 10 11 10 9 11 15 17 18 18 18 20 19 17 18 20 21 21 21 22 24 25 25 23 22 19 17 16 16 17 18
15 15 19 23 25 17 15 20 17 15 13 10 8 11 12 12 14 14 16 16 16 18 19 19 17 19 20 20 20 20 20 20 20 20 18 18 16 14 14 14 16 17 18
7 10 10 10 9 13 16 15 13 10 9 8 7 13 14 15 14 15 15 13 14 14 15 17 19 20 19 17 17 17 18 17 16 14 12 13 12 12 12 15 16 17 18
15 12 13 11 11 14 19 14 15 13 14 12 11 12 11 15 13 12 13 10 11 14 11 13 17 19 16 15 15 14 15 15 12 11 11 11 11 12 13 15 16 17 17
20 25 20 17 13 13 13 13 15 19 19 18 13 17 13 16 16 16 15 16 19 18 17 11 12 15 13 12 15 15 16 13 11 11 11 10 10 11 13 16 16 16 14
21 18 17 12 15 20 18 18 18 24 18 18 18 20 15 16 18 17 19 21 19 20 18 13 10 11 11 12 12 12 13 13 11 11 10 10 11 12 12 14 14 14 13
7 9 15 13 17 19 21 21 24 20 19 16 20 20 18 19 19 19 20 25 20 17 14 11 8 9 11 14 12 12 13 12 11 10 11 10 10 11 12 12 12 12 12
5 9 14 17 20 20 19 15 17 17 19 19 19 19 22 16 19 16 22 20 26 17 9 7 5 5 7 9 13 14 12 12 11 11 11 10 10 10 11 10 11 11 11

GFSGL_700_spd_036.txt.gz
Wind_Speed
21 20 20 22 24 23 22 21 25 22 19 19 16 16 16 17 17 16 17 19 18 18 19 19 18 16 16 15 12 12 11 13 15 10 11 12 17 22 26 26 25 26 25
22 22 22 24 25 24 22 24 24 22 19 18 16 13 15 17 18 19 21 22 23 23 21 19 19 22 19 14 13 13 14 15 13 10 12 14 18 20 22 26 26 27 27
26 26 26 27 28 26 25 25 23 23 20 17 15 14 16 19 21 22 24 26 28 27 25 23 21 22 24 17 14 14 16 16 14 12 14 17 21 21 25 29 30 30 28
22 28 28 28 28 29 27 27 25 24 20 17 16 19 22 24 24 25 25 28 30 29 27 25 22 23 22 21 19 16 19 20 19 18 19 18 23 26 31 31 31 29 29
21 19 29 29 28 31 33 30 28 28 25 24 25 26 27 26 25 24 24 27 29 29 28 27 25 25 19 24 17 20 21 23 23 23 22 23 26 27 30 28 27 27 31
24 24 18 27 32 32 34 35 33 32 30 29 30 32 29 26 25 24 26 26 27 29 28 27 27 26 22 26 20 23 21 26 27 25 24 27 27 29 29 29 28 29 32
24 26 26 22 27 34 33 36 36 34 34 33 33 31 30 28 26 25 23 23 24 29 28 28 28 28 24 24 23 22 27 29 30 29 28 27 32 31 30 28 29 30 32
27 28 29 28 26 30 36 35 36 38 39 37 35 34 33 31 27 22 21 22 23 26 31 30 29 29 26 23 22 26 26 31 31 33 30 31 32 29 30 31 31 32 33
31 26 29 29 31 32 32 37 37 38 39 40 39 37 35 30 23 18 16 28 30 31 33 31 30 27 26 25 27 28 33 35 29 27 32 32 31 32 31 34 32 35 36
22 19 19 23 33 35 33 33 39 39 37 37 37 33 27 20 17 18 23 24 29 29 30 26 23 22 24 22 25 29 32 31 24 25 27 34 34 30 32 34 35 35 35
26 24 23 24 22 32 35 36 36 40 40 39 35 30 24 26 22 23 24 22 28 30 27 22 20 21 21 25 24 27 29 20 23 28 31 30 33 34 35 36 36 35 35
31 34 33 33 27 28 35 40 39 35 36 39 33 28 24 27 20 16 17 27 31 26 25 22 21 21 21 21 24 24 24 27 28 29 31 32 35 34 32 30 29 30 32
41 39 39 40 40 37 38 39 39 38 39 38 31 31 26 16 10 15 28 38 29 24 25 21 19 20 19 18 21 24 25 25 30 30 32 31 29 25 24 24 26 28 29
46 47 47 46 42 44 38 35 38 43 41 40 29 27 21 13 17 22 32 31 27 25 22 21 19 18 17 20 23 24 25 27 29 30 26 25 23 19 20 24 26 26 27
43 47 50 48 43 44 44 39 36 38 35 30 23 22 16 14 29 32 24 29 25 22 19 19 18 18 19 20 21 22 25 27 28 22 21 21 20 20 21 23 25 25 27
36 37 39 39 42 42 45 35 31 32 27 17 15 12 19 31 33 27 25 25 21 19 17 16 17 18 19 19 21 24 23 23 19 19 20 22 23 24 26 25 26 27 27
35 36 39 40 41 36 20 37 10 32 18 20 12 17 30 30 26 26 22 19 18 15 16 16 17 19 20 20 19 17 18 19 19 20 21 23 23 24 25 25 25 25 23
38 38 31 31 27 23 22 17 26 18 13 14 19 22 25 25 21 16 16 15 14 15 17 18 18 18 17 17 16 16 18 19 20 21 23 24 24 23 23 22 22 21 21
29 26 24 29 32 24 25 22 20 15 15 17 18 19 22 19 15 13 12 13 15 16 18 19 18 17 17 17 17 19 19 19 21 23 25 24 22 20 20 19 18 18 20
21 20 19 17 16 15 14 18 25 18 17 16 18 20 17 13 13 12 14 17 17 16 18 20 18 18 17 17 19 19 18 19 20 22 22 20 19 19 16 15 16 18 19
15 7 11 16 18 17 15 13 15 15 15 18 17 13 14 14 13 15 17 17 15 17 19 18 17 18 18 19 20 19 19 17 17 17 16 16 16 14 13 15 16 18 20
11 17 16 13 15 15 13 11 12 11 13 14 8 9 12 13 14 13 15 14 16 18 18 17 17 19 20 19 19 17 16 15 16 15 14 14 13 12 13 14 15 17 18
8 11 13 16 12 11 9 6 7 10 12 14 11 12 10 15 14 12 12 14 16 16 14 14 14 16 18 16 16 14 13 12 13 13 13 13 12 11 12 13 15 16 16
15 15 24 27 22 20 21 20 15 9 13 13 15 14 15 14 15 16 14 16 15 12 15 16 15 15 15 14 14 14 13 11 11 11 12 12 11 10 11 13 14 14 14
16 19 31 29 25 19 15 11 8 12 15 19 20 19 16 21 24 18 16 14 15 19 17 13 13 12 12 13 13 12 12 11 11 11 11 11 10 10 11 12 12 12 13
13 15 6 14 9 7 5 11 17 18 18 17 18 18 13 16 15 15 14 19 15 16 16 9 9 10 8 9 14 13 12 12 11 11 11 12 11 11 11 11 11 11 11

GFSGL_700_spd_039.txt.gz
Wind_Speed
22 22 21 20 23 24 23 21 23 28 28 25 23 20 18 16 15 15 14 14 13 15 15 15 16 16 16 14 11 10 10 11 11 12 11 11 14 17 20 22 22 23 25
22 24 25 24 22 26 25 23 25 32 30 28 27 25 21 18 16 16 16 16 17 17 18 18 18 18 17 17 15 11 12 14 13 11 11 11 12 16 19 22 25 29 30
27 25 28 28 26 26 26 24 26 33 32 28 27 24 20 19 20 19 18 20 21 21 21 21 19 21 18 19 17 14 14 17 16 16 15 15 17 19 21 22 26 27 30
30 29 31 32 28 26 27 27 29 34 33 31 26 24 22 21 22 21 20 21 23 24 23 23 22 21 21 19 21 17 16 19 21 20 21 23 22 24 27 30 28 27 24
30 32 35 35 31 29 31 32 32 34 34 32 29 27 24 24 24 24 22 23 25 25 24 23 26 23 23 23 23 19 24 20 25 24 25 26 27 26 29 33 33 31 28
30 32 30 32 34 32 33 36 36 36 36 34 33 30 28 27 27 26 25 26 27 26 20 22 25 29 26 24 25 25 25 27 25 28 29 31 30 29 30 33 36 34 30
33 34 33 29 27 34 36 37 40 40 39 38 36 34 32 31 32 30 28 29 30 25 23 24 26 31 28 26 27 27 25 28 28 28 31 35 32 31 32 33 35 34 34
34 35 32 30 31 30 34 40 40 43 44 43 40 38 36 37 37 32 29 29 29 23 24 25 28 33 30 28 29 29 27 27 28 35 30 36 32 33 32 33 36 35 35
43 36 31 32 33 35 37 35 43 44 44 46 45 44 42 41 37 33 30 32 26 22 23 31 32 31 28 30 30 28 29 30 33 38 33 30 30 29 30 35 34 35 37
43 40 35 37 35 38 38 41 38 40 45 46 45 46 44 42 40 36 33 28 28 24 25 29 29 24 27 27 25 27 27 27 31 29 30 22 23 29 31 34 35 38 40
37 37 32 33 32 33 38 40 41 41 40 47 49 45 45 44 35 32 31 22 35 24 21 29 35 27 26 26 24 24 25 28 27 26 23 27 29 31 33 35 37 38 37
36 36 34 30 29 28 32 37 39 42 44 45 44 45 43 39 38 37 37 37 37 23 23 28 31 27 25 21 22 22 25 23 23 23 26 27 28 31 32 31 31 30 30
38 37 37 38 41 48 44 38 43 42 49 48 47 41 39 36 32 31 21 24 20 22 33 31 27 27 23 20 21 22 21 21 24 24 24 26 28 26 26 26 26 28 28
42 42 48 47 43 45 45 46 50 46 46 49 48 46 40 35 34 31 19 20 24 33 26 24 27 24 20 19 19 18 18 20 20 21 24 24 24 24 23 25 26 26 27
35 38 43 46 49 51 52 52 51 50 49 46 48 48 45 43 32 20 20 28 32 22 20 22 25 21 18 17 17 16 16 17 18 20 22 22 24 24 25 27 28 28 28
39 42 46 48 51 54 58 63 59 52 49 38 37 53 43 29 29 14 19 34 25 20 19 23 22 18 17 16 15 14 14 15 18 20 21 22 22 23 25 27 29 29 29
42 39 38 39 40 42 45 48 48 37 34 16 31 10 6 6 7 10 25 21 21 23 19 19 16 17 16 13 12 12 14 16 19 20 20 20 21 23 25 26 26 25 25
43 45 43 39 33 33 47 31 26 36 44 33 11 21 14 15 11 18 16 21 22 17 16 14 15 16 14 12 12 13 16 18 19 19 18 19 19 22 23 24 24 23 23
28 32 44 37 50 40 35 27 14 13 12 10 15 14 14 17 19 17 17 18 18 17 14 13 14 14 13 13 14 15 17 19 18 16 16 17 18 20 20 20 20 20 21
26 27 20 20 28 39 30 18 17 12 11 12 16 18 17 20 18 17 19 19 18 15 13 13 14 15 13 14 14 16 18 16 14 14 15 18 19 18 18 19 18 18 20
9 5 5 8 12 14 14 14 13 11 14 15 18 17 17 18 18 18 18 17 15 12 12 14 15 13 13 15 16 17 16 14 12 13 15 16 17 17 17 17 17 19 19
12 9 11 4 15 14 12 12 14 15 15 14 13 15 17 17 15 15 14 12 12 12 14 15 12 14 17 15 16 16 15 13 12 13 13 14 14 15 15 15 15 17 17
7 3 1 12 17 16 17 14 13 12 12 10 11 9 11 10 10 10 4 6 9 11 13 12 13 16 18 18 17 15 14 12 12 12 12 12 13 13 13 13 14 15 16
8 7 7 11 17 16 16 13 12 15 16 13 9 7 7 9 8 8 9 10 10 9 10 11 12 14 15 15 15 13 13 10 10 11 11 11 11 12 12 12 13 14 15
12 15 15 12 18 19 19 18 12 13 14 12 7 12 11 14 15 10 11 10 10 10 9 13 14 13 13 13 13 12 11 10 11 12 12 12 11 11 12 12 13 14 15
15 15 13 13 24 18 19 19 20 17 12 10 12 13 15 16 17 20 15 12 12 10 10 14 13 11 11 14 14 11 9 9 11 12 12 12 12 11 11 12 13 14 14

GFSGL_700_spd_042.txt.gz
Wind_Speed
24 23 21 21 21 19 24 25 26 28 33 32 29 26 24 22 20 18 16 15 11 12 11 11 12 12 12 13 13 12 13 14 13 15 14 12 11 11 12 14 16 17 19
22 22 21 20 21 23 22 25 29 30 33 35 33 31 28 25 21 19 17 16 14 14 15 15 14 15 15 16 16 15 13 16 16 17 17 16 14 14 14 16 20 22 25
23 23 24 23 24 25 22 24 29 31 34 38 37 34 30 26 25 22 19 19 18 17 18 17 18 19 18 19 19 16 17 16 17 17 20 20 19 18 19 20 20 22 28
27 27 26 25 24 25 25 25 29 32 34 40 38 36 34 30 29 27 24 22 23 22 21 20 21 22 20 21 22 21 19 20 21 21 20 25 25 25 26 27 27 26 27
30 31 31 29 27 28 29 29 31 34 35 40 42 40 37 35 33 30 26 26 26 25 24 23 22 24 22 24 24 23 25 24 24 25 26 26 28 31 32 33 33 29 27
29 31 31 32 30 31 33 33 32 36 37 39 44 43 40 37 34 31 30 30 28 28 27 23 21 26 25 25 28 28 28 29 29 28 27 27 28 32 34 37 35 28 32
31 32 34 36 34 32 35 37 36 38 39 41 44 45 44 40 37 34 33 33 32 32 30 24 26 33 29 27 28 31 33 33 32 30 31 29 32 31 29 33 30 30 32
31 33 35 36 34 33 33 36 39 40 42 43 45 46 46 45 40 36 38 38 37 36 31 29 30 30 26 26 32 36 36 36 33 33 32 33 31 36 31 29 28 30 32
43 39 36 37 36 36 37 35 32 36 42 43 48 48 49 47 44 42 44 44 41 38 34 35 28 26 24 22 35 35 36 33 33 32 32 32 30 27 25 24 26 31 32
39 41 35 38 40 41 38 37 40 42 39 39 44 49 52 52 49 48 47 50 46 40 36 28 25 31 30 27 32 33 31 29 29 33 28 28 25 21 26 26 29 30 32
30 29 33 42 47 42 40 34 34 37 41 46 46 46 48 49 52 51 52 54 48 38 33 30 23 35 29 31 29 29 30 27 28 26 29 21 22 28 29 29 29 29 29
34 28 29 34 40 45 37 33 35 33 39 38 48 53 52 47 43 48 52 48 41 39 38 29 23 30 32 35 28 31 27 24 26 24 20 22 27 27 27 28 26 26 26
32 31 31 35 33 34 37 36 33 38 45 54 53 52 52 50 53 53 53 48 48 46 45 38 23 31 34 29 25 26 24 23 22 18 19 23 24 25 26 25 26 26 24
31 32 39 41 37 39 36 39 42 42 49 48 46 48 52 53 46 51 55 53 56 45 33 21 26 32 30 22 23 22 21 19 17 18 20 23 22 22 23 24 24 25 24
34 34 35 38 39 44 46 45 50 54 54 54 53 51 52 50 44 43 53 50 35 21 20 32 29 30 21 20 21 20 19 18 18 20 22 20 20 21 22 23 24 25 27
35 36 39 41 43 43 45 49 52 54 53 53 49 36 43 45 51 47 37 7 14 13 18 22 22 20 19 20 19 19 19 20 21 21 19 18 19 20 21 23 24 24 24
32 34 37 40 45 48 51 52 52 50 53 48 44 48 42 36 33 34 40 30 28 21 14 21 23 18 17 19 16 20 23 21 19 19 17 17 18 20 22 21 20 20 22
36 39 41 44 47 49 46 43 40 43 42 36 37 38 56 67 38 42 30 18 23 23 21 19 18 16 18 18 20 24 22 19 18 17 17 18 18 20 17 16 17 18 19
31 31 31 33 34 35 37 39 36 27 24 23 19 29 30 31 16 17 14 16 17 18 17 18 17 18 19 21 23 21 19 18 18 17 19 18 17 15 11 13 15 16 17
20 19 18 19 17 18 24 30 27 20 17 21 22 19 20 20 16 16 18 17 20 19 19 18 18 19 19 19 19 17 17 18 18 19 18 17 13 8 8 11 14 15 16
4 1 2 5 11 14 8 4 8 12 13 13 15 15 15 14 17 17 17 20 19 18 18 17 16 17 18 17 16 17 18 18 19 18 16 12 9 6 8 11 13 13 14
3 5 6 8 8 5 5 6 8 11 12 14 13 15 17 17 18 18 18 16 13 15 18 17 18 18 16 15 16 17 16 16 16 15 12 10 7 5 7 10 11 12 13
4 3 4 4 2 4 4 6 11 12 10 11 13 15 14 16 17 15 13 12 14 16 15 16 15 14 14 15 15 15 15 16 14 13 11 8 6 6 7 9 11 12 13
2 2 1 2 6 12 15 12 9 10 14 15 16 15 15 14 14 14 14 14 12 11 11 13 15 13 14 16 16 15 15 13 11 11 11 9 7 6 6 7 10 11 12
7 7 8 9 11 12 12 13 17 19 18 19 20 14 16 17 16 11 11 14 10 8 9 6 7 10 10 8 9 11 12 11 11 12 12 10 7 7 7 7 9 11 11
8 11 10 12 11 12 24 22 28 24 21 17 14 11 15 14 19 16 12 12 12 10 11 9 12 10 3 3 5 7 7 9 11 12 12 9 7 8 8 9 10 10 11

GFSGL_700_spd_045.txt.gz
Wind_Speed
29 24 21 22 24 23 22 22 24 23 28 33 34 32 30 27 24 22 18 16 15 15 13 11 11 11 11 12 11 13 12 13 15 18 19 18 16 15 14 14 14 13 14
27 27 27 26 25 25 24 22 23 26 29 35 37 35 33 31 27 24 22 19 17 17 18 17 15 15 14 14 15 16 17 15 13 14 17 19 19 18 18 19 20 21 20
30 28 28 28 30 28 25 23 23 26 31 35 41 39 36 33 30 27 26 23 22 21 22 21 19 19 17 16 17 18 19 20 17 16 17 19 21 18 21 22 25 24 25
32 30 29 29 31 27 23 22 23 25 32 36 40 44 40 37 35 33 31 28 27 25 26 25 23 22 21 19 18 20 24 24 22 20 20 21 24 28 27 27 28 29 30
35 33 31 30 30 29 28 26 24 26 31 36 38 42 45 43 41 39 34 32 31 31 31 29 27 25 24 21 20 23 27 29 27 27 25 23 23 28 31 29 28 27 32
37 34 32 33 32 31 30 30 28 27 28 35 39 40 45 46 44 42 39 37 36 35 34 32 31 29 28 25 23 27 35 31 30 30 30 29 26 27 30 31 33 28 30
30 31 37 38 36 33 32 32 32 34 31 33 39 40 42 49 47 44 43 42 41 39 37 36 37 32 30 32 26 32 35 32 28 32 33 32 30 29 32 30 31 29 33
31 32 35 35 34 35 35 33 33 35 36 37 36 40 42 43 49 49 47 45 45 45 43 40 41 34 32 38 34 28 31 31 28 31 32 34 32 29 30 31 27 24 27
33 31 31 34 35 37 36 33 33 36 38 38 39 38 43 44 45 48 50 50 51 50 49 46 43 38 35 32 31 31 32 30 26 27 31 32 32 30 31 26 22 24 28
31 27 30 34 33 34 35 36 36 37 39 37 35 35 37 40 46 49 51 54 56 58 57 53 48 43 35 30 31 30 30 23 26 28 31 32 31 26 26 22 23 26 29
30 30 29 28 36 35 35 34 38 39 40 38 36 39 41 39 41 43 52 59 63 62 59 56 51 45 36 34 36 25 29 25 32 29 30 31 25 25 22 22 25 26 28
34 32 31 28 32 35 33 36 32 36 37 40 21 27 27 34 45 44 52 57 55 58 54 56 58 47 42 36 34 47 43 30 27 28 27 25 21 22 22 23 25 25 26
30 32 32 33 26 24 25 27 35 38 25 28 34 43 45 51 42 48 50 54 56 52 57 64 56 50 47 44 38 51 41 35 28 26 24 21 20 22 22 22 24 25 26
31 30 28 30 31 28 30 32 35 35 32 35 35 43 44 46 45 49 53 46 43 48 46 36 24 45 40 36 41 40 35 30 28 23 21 19 20 21 21 22 24 25 26
31 34 33 34 34 34 35 38 39 37 38 40 44 45 48 52 50 51 51 52 54 39 55 39 27 36 33 24 24 29 30 27 22 21 19 19 20 19 20 22 22 24 26
30 32 33 32 32 33 34 37 39 42 43 46 50 53 53 51 54 54 55 50 49 46 52 32 31 17 23 22 26 27 26 23 22 20 20 19 19 19 20 21 21 23 24
29 29 29 29 29 30 32 36 39 43 46 48 48 45 46 43 44 39 38 39 36 47 54 41 22 19 22 26 24 23 22 22 20 21 20 18 18 19 20 19 20 21 21
26 26 25 26 30 34 37 42 43 46 46 49 48 44 31 31 33 35 34 36 33 28 31 28 27 24 24 24 23 23 21 19 19 19 18 18 19 18 19 18 19 19 18
27 27 29 32 35 38 40 41 35 32 32 31 32 30 27 29 24 24 22 19 13 11 20 20 20 24 24 24 22 20 19 18 18 18 18 19 18 17 18 18 18 16 15
27 28 32 34 30 25 21 17 17 19 20 16 19 26 30 25 20 13 10 13 16 14 21 19 19 21 22 20 19 17 17 17 19 20 19 19 18 17 18 18 16 14 13
25 26 21 14 12 7 5 5 8 7 7 6 7 7 9 11 15 12 13 15 13 12 14 17 19 19 18 16 16 17 18 19 20 20 20 20 17 18 19 17 14 15 11
17 15 11 7 7 3 3 4 5 7 6 6 9 8 9 9 11 15 18 13 12 14 16 18 18 17 16 16 17 18 19 20 20 21 21 20 19 20 17 15 16 13 10
7 5 5 5 6 6 5 7 8 9 9 10 12 12 12 12 14 15 15 14 14 14 14 15 15 16 16 16 17 18 19 21 21 22 22 21 20 17 16 16 16 12 9
5 5 4 4 6 7 9 11 11 13 17 16 18 16 16 16 16 16 15 16 17 17 16 13 12 14 17 17 17 19 20 19 20 22 22 19 17 17 18 18 14 11 9
7 5 5 4 5 8 11 10 9 12 13 15 17 17 18 19 19 20 19 17 14 11 10 10 12 15 17 18 17 18 19 18 19 19 17 17 18 18 19 17 14 12 10
16 17 14 16 14 11 10 11 18 21 21 21 22 23 22 21 20 17 15 12 9 10 11 12 13 12 11 9 12 14 14 14 14 15 17 18 20 20 18 16 15 13 11

GFSGL_700_spd_048.txt.gz
Wind_Speed
28 27 23 30 35 33 33 32 29 24 23 25 28 29 31 31 28 27 23 22 17 15 15 13 13 12 11 10 10 10 10 10 12 15 14 17 15 15 17 16 16 17 18
32 31 29 21 22 28 33 31 29 28 26 27 30 33 33 33 32 31 26 24 22 20 18 18 18 17 15 15 15 14 14 13 14 15 18 17 16 16 14 15 18 21 22
31 34 33 31 26 22 22 25 27 27 28 29 32 35 35 36 35 34 31 28 26 25 25 24 23 22 19 19 18 19 18 18 17 17 23 22 20 20 21 21 22 24 27
34 34 33 30 27 24 22 22 26 26 27 29 33 35 36 38 38 38 37 34 31 30 30 29 29 27 24 23 21 22 20 21 19 21 25 29 27 24 22 23 25 26 27
37 37 35 31 30 30 29 27 26 27 26 27 32 35 37 40 42 41 41 39 37 35 35 33 34 32 28 28 27 22 21 18 21 24 26 31 34 30 24 24 25 25 28
38 38 34 34 32 32 32 33 33 30 28 27 30 34 37 37 40 44 43 42 42 42 40 38 38 38 36 33 32 28 26 20 25 36 25 30 36 34 29 30 28 29 32
39 37 38 37 37 34 35 36 34 32 32 30 30 31 34 38 39 41 48 49 47 48 46 43 43 44 40 38 35 35 31 32 26 31 28 32 35 34 32 31 28 30 30
40 39 39 40 41 39 38 39 38 37 36 35 34 34 34 35 38 41 42 48 51 51 52 50 49 49 47 44 41 41 37 37 31 30 26 27 31 30 31 30 30 29 28
37 36 38 41 40 42 42 39 38 40 40 41 43 42 41 40 38 40 42 46 50 55 57 55 54 53 53 50 50 45 41 37 34 32 27 24 26 27 30 31 28 25 23
34 34 35 38 36 34 36 39 41 42 42 43 43 42 43 44 42 41 42 46 48 49 51 59 59 59 59 57 54 49 44 35 38 29 28 29 28 26 28 27 24 23 24
36 33 31 34 34 29 29 33 36 38 41 40 40 40 44 46 43 44 49 55 49 52 59 66 60 61 58 59 54 55 46 41 36 28 27 27 28 31 27 24 21 22 24
38 37 32 30 31 31 30 32 37 37 39 35 38 45 46 43 45 45 43 53 60 60 65 60 61 62 67 56 47 57 51 42 32 23 29 41 43 32 26 20 20 22 23
41 40 39 35 34 33 32 32 30 28 28 34 42 40 40 38 47 46 44 48 54 55 50 49 57 60 60 62 51 65 66 38 25 23 32 34 30 26 20 18 21 21 24
36 44 47 40 35 32 31 29 27 28 30 31 30 29 29 32 35 42 49 52 49 45 49 43 40 42 45 47 43 48 38 29 15 26 36 33 26 22 19 20 20 21 22
32 38 40 36 32 29 29 31 31 29 29 28 28 29 29 33 34 36 40 40 41 41 35 37 40 42 39 36 37 39 33 42 29 32 31 28 23 21 19 20 20 21 18
29 29 33 35 33 32 32 33 31 31 32 34 34 35 38 39 39 40 41 39 35 32 37 37 40 32 30 31 40 35 27 36 26 29 27 27 23 19 20 20 19 18 16
28 27 28 29 31 32 33 34 36 36 35 36 38 42 46 50 49 46 43 41 34 37 31 34 32 29 29 33 22 16 20 20 26 26 28 25 20 20 20 19 18 16 15
32 32 33 34 35 36 36 35 34 36 37 38 42 46 49 47 44 41 35 36 29 22 23 30 34 39 30 29 28 26 24 25 25 26 24 21 20 20 19 19 16 15 15
32 31 31 31 31 31 31 32 33 36 38 40 45 45 42 33 32 27 27 23 19 17 17 21 24 24 24 24 25 21 19 21 24 23 21 21 21 20 20 16 16 16 14
25 25 25 26 27 29 32 34 35 36 36 34 33 35 32 26 23 24 21 20 20 13 12 13 11 13 15 16 16 16 19 22 21 20 21 21 22 21 18 16 18 15 14
19 21 21 23 25 29 32 33 32 27 24 23 21 19 19 15 13 10 8 13 12 11 14 13 12 14 14 15 16 17 17 18 20 22 22 22 22 18 18 18 17 15 16
21 21 19 21 23 25 23 19 15 14 11 9 6 4 6 9 12 12 10 12 11 10 11 15 15 14 14 15 16 19 20 22 22 22 22 22 20 20 20 19 18 16 17
12 14 15 15 15 15 16 14 11 10 9 8 9 10 10 11 11 13 13 13 11 11 14 16 15 14 15 17 18 19 20 22 22 22 22 22 20 21 21 20 20 18 19
12 12 13 13 14 15 15 15 15 14 14 14 12 13 13 15 14 13 14 14 14 15 15 14 15 16 17 19 20 20 21 22 21 21 22 22 22 22 22 22 20 20 19
11 10 11 13 15 16 15 14 15 14 14 16 16 18 18 19 18 17 17 17 17 16 15 15 16 15 16 18 18 20 20 20 22 22 22 22 23 22 24 22 22 21 17
15 15 15 14 15 16 16 17 16 15 14 17 20 20 21 23 22 21 20 18 16 16 15 15 15 14 13 13 14 15 18 19 20 21 21 22 23 23 24 24 22 19 18